[[{"header":{"parameterUnit":"m.s-1","parameterCategory":1,"la1":30.2991,"la2":30.254,"lo1":-89.0895,"lo2":-89.0444,"dy":0.0017,"dx":0.0017,"nx":28,"ny":28,"refTime":"2025-09-16T21:00:00:Z","depth":0,"parameterNumber":2,"parameterNumberName":"U-component_of_WINDS"},"data":[0,0,0,0,0,0,0,0,0,0,0,0,0,0,0,0,0,0,0,0,0,0,0,0,0,0,0,0,0,0,0,0,0,0,0,0,0,0,0,0,0,0,0,0,0,0,0,0,0,0,0,0,0,0,0,0,0,0,1.6315,1.6315,0,1.6348,1.6348,1.6349,1.6345,1.6345,1.6344,1.6344,1.6376,1.6377,1.6378,0,0,0,0,0,0,0,0,0,0,0,0,0,1.6245,1.6247,1.6315,1.6315,1.6316,1.6348,1.6348,1.6349,1.6345,1.6345,1.6344,1.6344,1.6375,1.6377,1.6378,0,0,0,0,0,0,0,0,0,0,0,0,0,1.6277,1.6247,1.6315,1.6318,1.6319,1.6348,1.6348,1.6349,1.6345,1.6345,1.6344,1.6343,1.6375,1.6376,1.6378,1.6406,0,0,1.6385,1.6385,0,0,0,0,0,0,0,0,1.6275,1.6279,1.6317,1.6318,1.6319,1.6342,1.6335,1.6368,1.6346,1.6335,1.6344,1.6343,1.6365,1.6368,1.6375,1.6408,1.6409,1.6385,1.6386,1.6387,1.6387,0,0,0,0,0,0,0,1.6273,1.6278,1.6328,1.6318,1.6319,1.6317,1.632,1.6342,1.6354,1.6336,1.6336,1.634,1.6365,1.6373,1.6376,1.6409,1.6385,1.6386,1.6388,1.6388,1.6463,1.6464,0,0,0,0,0,0,1.627,1.6276,1.6327,1.6329,1.6294,1.6318,1.6322,1.6335,1.6354,1.6356,1.6341,1.634,1.637,1.6374,1.6377,1.6409,1.6387,1.6389,1.639,1.6462,1.6463,1.6464,0,0,0,0,0,0,1.6269,1.6275,1.6326,1.6302,1.6309,1.632,1.6335,1.6336,1.6345,1.6357,1.6359,1.6347,1.637,1.6374,1.6398,1.641,1.639,1.6391,1.6461,1.6463,1.6464,1.6474,0,0,0,0,0,0,1.6267,1.6274,1.6286,1.6303,1.631,1.6348,1.6335,1.6337,1.6348,1.6347,1.6364,1.6366,1.637,1.6396,1.64,1.6412,1.6393,1.646,1.6462,1.6463,1.6472,1.6475,1.6477,0,0,0,0,0,1.6264,1.6288,1.6287,1.6293,1.6325,1.6348,1.6352,1.6357,1.6349,1.636,1.6368,1.6365,1.6408,1.6398,1.6404,1.6416,1.646,1.6462,1.6463,1.6471,1.6474,1.6477,0,0,0,0,0,0,1.6272,1.629,1.6289,1.6319,1.6332,1.6348,1.6362,1.6361,1.6376,1.6374,1.6379,1.6383,1.6406,1.6414,1.6402,1.6442,1.6433,1.6436,1.6437,1.644,1.6442,1.644,1.6395,0,0,0,0,0,1.6277,1.6295,1.631,1.6334,1.6341,1.635,1.6361,1.6363,1.6377,1.6382,1.6392,1.6404,1.642,1.6431,1.6446,1.6474,1.6476,1.6485,1.6487,1.6489,1.6491,1.6504,1.6507,1.647,1.647,1.647,0,0,1.6288,1.63,1.6311,1.6336,1.6347,1.6364,1.6355,1.6374,1.6387,1.6385,1.6408,1.6415,1.6429,1.6454,1.6466,1.6461,1.6502,1.6491,1.6493,1.6494,1.6506,1.6509,1.6513,1.6471,1.6471,1.6471,0,0,1.6315,1.6328,1.6348,1.6359,1.6375,1.638,1.6385,1.6401,1.6405,1.6429,1.6427,1.6441,1.6469,1.6479,1.6487,1.6517,1.6514,1.6522,1.6534,1.6546,1.6549,1.6552,1.656,1.6564,1.6524,1.6524,1.6524,0,1.6326,1.6354,1.6359,1.6378,1.6388,1.6387,1.6407,1.6416,1.6436,1.6443,1.6437,1.6471,1.6481,1.6507,1.6514,1.6522,1.6526,1.6519,1.6549,1.6551,1.6554,1.6562,1.6565,1.6525,1.6524,1.6524,1.6524,0,1.6365,1.6384,1.6398,1.6417,1.6429,1.6449,1.6455,1.6466,1.6467,1.6473,1.6495,1.6507,1.6523,1.653,1.6531,1.6556,1.6552,1.6548,1.6538,1.6558,1.6565,1.6569,1.6526,1.6525,1.6525,1.6525,0,0,1.6399,1.642,1.6425,1.6432,1.6449,1.6463,1.6481,1.6498,1.6506,1.652,1.6534,1.6557,1.6553,1.6562,1.6564,1.6575,1.6595,1.6569,1.6569,1.6572,1.662,1.6622,1.6626,1.6594,1.6594,1.6595,1.6618,0,1.6427,1.646,1.6464,1.6493,1.6509,1.6507,1.6523,1.6534,1.654,1.6553,1.6559,1.6574,1.6568,1.6573,1.6584,1.659,1.6604,1.6589,1.6605,1.6606,1.66,1.663,1.6633,1.6655,1.6621,1.6622,1.6622,0,1.6464,1.6478,1.6509,1.6521,1.6528,1.6542,1.6556,1.657,1.6581,1.6584,1.6594,1.6595,1.6612,1.6602,1.6624,1.6614,1.6621,1.6624,1.6625,1.6626,1.6614,1.663,1.6662,1.6664,1.6627,1.6627,1.6627,0,1.6483,1.651,1.6531,1.6538,1.6553,1.6563,1.657,1.6581,1.659,1.6602,1.6608,1.6622,1.6629,1.664,1.6643,1.6636,1.6665,1.6656,1.6667,1.6666,1.6672,1.6671,1.6704,1.6679,1.6679,1.6679,1.6679,0,1.6513,1.6531,1.6539,1.6552,1.6571,1.6576,1.6594,1.6601,1.661,1.6623,1.6623,1.6635,1.6639,1.6651,1.6654,1.6671,1.6675,1.6677,1.6677,1.6676,1.6676,1.668,1.6678,1.668,1.6679,1.6679,1.6679,0,1.6538,1.6544,1.6566,1.6579,1.6582,1.6596,1.6606,1.6617,1.6622,1.6638,1.6642,1.665,1.6664,1.6669,1.6686,1.6688,1.6707,1.6707,1.6703,1.6703,1.6713,1.6711,1.6748,1.6752,1.6726,1.6726,1.6726,0,1.6556,1.6569,1.6583,1.6592,1.6599,1.6613,1.6622,1.6626,1.6635,1.6648,1.6658,1.6672,1.6683,1.6706,1.6712,1.6724,1.6724,1.6735,1.6725,1.6723,1.6722,1.672,1.6721,1.6737,1.6737,1.6737,1.6738,0,1.6586,1.6588,1.6601,1.6615,1.6626,1.6637,1.6648,1.6654,1.666,1.667,1.6684,1.6693,1.671,1.6723,1.6736,1.6742,1.674,1.6741,1.6744,1.6742,1.6739,1.6739,1.6707,1.674,1.674,1.6739,1.6739,1.6739,1.6607,1.6618,1.6629,1.6643,1.6651,1.6661,1.6671,1.6677,1.669,1.6704,1.6706,1.672,1.673,1.6747,1.6753,1.6764,1.6761,1.6765,1.6766,1.6767,1.6767,1.6738,1.6767,1.6767,1.6766,1.6766,1.6766,0,1.6635,1.6642,1.6655,1.667,1.668,1.6678,1.6689,1.6698,1.6711,1.6721,1.6732,1.6747,1.676,1.6767,1.6779,1.6786,1.6786,1.6789,1.6788,1.6789,1.677,1.6766,1.6789,1.6789,1.6789,1.6789,1.6789,1.6789,1.6651,1.667,1.6673,1.6694,1.6701,1.6716,1.6722,1.673,1.6737,1.6755,1.6765,1.677,1.6777,1.679,1.6801,1.6802,1.6806,1.681,1.6811,1.6793,1.679,1.6788,1.6784,1.6811,1.6811,1.6829,1.6829,1.6829]},{"header":{"parameterUnit":"m.s-1","parameterCategory":1,"la1":30.2991,"la2":30.254,"lo1":-89.0895,"lo2":-89.0444,"dy":0.0017,"dx":0.0017,"nx":28,"ny":28,"refTime":"2025-09-16T21:00:00:Z","depth":0,"parameterNumber":3,"parameterNumberName":"V-component_of_WINDS"},"data":[0,0,0,0,0,0,0,0,0,0,0,0,0,0,0,0,0,0,0,0,0,0,0,0,0,0,0,0,0,0,0,0,0,0,0,0,0,0,0,0,0,0,0,0,0,0,0,0,0,0,0,0,0,0,0,0,0,0,1.9999,1.9999,0,1.9951,1.995,1.995,1.989,1.989,1.9889,1.9888,1.9839,1.9838,1.9838,0,0,0,0,0,0,0,0,0,0,0,0,0,2.0039,2.0039,1.9999,1.9999,1.9998,1.9951,1.995,1.995,1.9891,1.9889,1.9888,1.9887,1.9839,1.9838,1.9838,0,0,0,0,0,0,0,0,0,0,0,0,0,2.001,2.0039,1.9999,1.9963,1.9959,1.9951,1.995,1.995,1.9891,1.9889,1.9888,1.9887,1.9839,1.9838,1.9838,1.9862,0,0,1.9836,1.9835,0,0,0,0,0,0,0,0,2.0011,2.0008,1.9969,1.9965,1.9961,1.9925,1.9946,1.992,1.9891,1.9917,1.9888,1.9886,1.9869,1.9865,1.9859,1.9859,1.9857,1.9835,1.9835,1.9835,1.9835,0,0,0,0,0,0,0,2.0013,2.001,1.998,1.9968,1.9964,1.9949,1.9943,1.9941,1.9901,1.9914,1.991,1.9905,1.9866,1.986,1.9858,1.9857,1.9836,1.9835,1.9835,1.9834,1.9871,1.9872,0,0,0,0,0,0,2.0021,2.0012,1.9982,1.9979,1.9983,1.9949,1.9943,1.9938,1.9901,1.9894,1.9906,1.9903,1.9862,1.9859,1.9856,1.9879,1.9835,1.9834,1.9834,1.987,1.9871,1.9873,0,0,0,0,0,0,2.0022,2.0019,1.9984,1.9994,1.9988,1.995,1.9945,1.9938,1.9932,1.9895,1.9887,1.9908,1.9861,1.9857,1.986,1.9877,1.9834,1.9833,1.9868,1.987,1.9872,1.9928,0,0,0,0,0,0,2.0023,2.002,2.0029,1.9995,1.9988,1.9989,1.9947,1.9938,1.9931,1.9925,1.9894,1.9888,1.9859,1.9861,1.9859,1.9875,1.9833,1.9866,1.9869,1.9871,1.9924,1.9932,1.9938,0,0,0,0,0,2.0025,2.0047,2.0029,2.0026,1.9999,1.999,1.9986,1.9953,1.9933,1.9941,1.9917,1.9889,1.9876,1.9862,1.9859,1.9875,1.9865,1.9868,1.9871,1.9921,1.993,1.9938,0,0,0,0,0,0,2.0084,2.0042,2.0022,2.0034,2.0016,1.998,1.999,1.9964,1.9952,1.9948,1.9907,1.9901,1.9908,1.9892,1.9878,1.9895,1.9866,1.9869,1.9905,1.9913,1.992,1.9923,1.9832,0,0,0,0,0,2.0099,2.0096,2.0059,2.0073,2.0065,2.0029,2.0024,2.0,1.998,1.9972,1.9949,1.993,1.9921,1.9917,1.9907,1.9922,1.9913,1.9932,1.9939,1.9944,1.9947,1.9951,1.9958,1.9883,1.9883,1.9883,0,0,2.0128,2.0105,2.0105,2.0084,2.0067,2.0064,2.0023,2.0022,2.0019,1.9972,1.9973,1.9955,1.9932,1.994,1.9943,1.9927,1.9965,1.9948,1.9953,1.9952,1.9955,1.9962,1.9968,1.9885,1.9884,1.9884,0,0,2.018,2.0163,2.0172,2.0156,2.0131,2.0107,2.0109,2.0077,2.0063,2.0063,2.0027,2.0023,2.001,1.9994,1.9984,2.0029,2.0001,2.0027,2.0062,2.0066,2.0072,2.0077,2.0091,2.0096,2.003,2.003,2.003,0,2.022,2.0214,2.0179,2.018,2.017,2.0128,2.0135,2.0122,2.0095,2.0089,2.0072,2.0053,2.0035,2.0038,2.0048,2.0043,2.0043,2.003,2.0074,2.0079,2.0083,2.0095,2.0101,2.0033,2.0033,2.0032,2.0032,0,2.0263,2.026,2.027,2.0244,2.0236,2.0241,2.0205,2.0201,2.0178,2.0156,2.0155,2.0132,2.0115,2.0114,2.0092,2.0114,2.0104,2.0082,2.0051,2.0094,2.0104,2.0109,2.0037,2.0036,2.0035,2.0035,0,0,2.0351,2.0305,2.0309,2.0296,2.0265,2.0262,2.0263,2.0247,2.0243,2.0227,2.0226,2.0215,2.0193,2.0182,2.0157,2.0162,2.0195,2.0138,2.0136,2.0147,2.0215,2.0231,2.0237,2.0178,2.0179,2.0179,2.0216,0,2.0395,2.0395,2.0363,2.0372,2.0367,2.0326,2.0327,2.0308,2.0287,2.0279,2.0256,2.0248,2.0221,2.0213,2.0216,2.0191,2.0208,2.0188,2.0175,2.0175,2.018,2.0243,2.026,2.0296,2.022,2.0221,2.0221,0,2.0447,2.0432,2.044,2.0407,2.0404,2.0406,2.0387,2.0381,2.0358,2.0342,2.0329,2.0301,2.0299,2.0271,2.0267,2.0254,2.0247,2.0233,2.0234,2.023,2.0199,2.0238,2.0307,2.0312,2.0228,2.0228,2.0227,0,2.0507,2.0489,2.0491,2.0482,2.0444,2.0446,2.043,2.0405,2.0397,2.0381,2.0375,2.0359,2.035,2.0338,2.0305,2.0289,2.0304,2.0274,2.0289,2.029,2.0293,2.0293,2.0359,2.0292,2.0292,2.0292,2.0292,0,2.0558,2.0564,2.0517,2.0518,2.0523,2.0486,2.0492,2.0472,2.0451,2.0446,2.0411,2.0407,2.0366,2.0357,2.0332,2.0331,2.0328,2.0314,2.0306,2.0316,2.0317,2.0309,2.0305,2.0293,2.0293,2.0293,2.0292,0,2.0625,2.0594,2.0593,2.0557,2.0548,2.0554,2.0522,2.0521,2.0498,2.0493,2.0489,2.0452,2.044,2.0407,2.0387,2.037,2.0375,2.0363,2.0383,2.0378,2.0394,2.0392,2.0456,2.0461,2.0393,2.0394,2.0394,0,2.0659,2.0663,2.0627,2.0622,2.0607,2.0599,2.059,2.0554,2.0546,2.0519,2.0521,2.0506,2.0492,2.0474,2.0445,2.0429,2.0415,2.0438,2.0412,2.042,2.0412,2.0412,2.0411,2.0443,2.0444,2.0445,2.0446,0,2.0722,2.0706,2.0695,2.0678,2.0668,2.0653,2.0635,2.0633,2.0592,2.0584,2.0571,2.0561,2.0539,2.0524,2.0503,2.0486,2.0458,2.0454,2.0456,2.0465,2.0475,2.0467,2.0396,2.0453,2.0452,2.0451,2.0451,2.0451,2.0772,2.0772,2.0747,2.0735,2.0718,2.0702,2.0699,2.0675,2.0663,2.0643,2.0622,2.0611,2.0586,2.0555,2.054,2.0529,2.0515,2.0519,2.052,2.0521,2.0524,2.0478,2.0526,2.0526,2.0525,2.0525,2.0525,0,2.0831,2.0812,2.0802,2.0778,2.0768,2.0744,2.0723,2.0716,2.0707,2.0686,2.0673,2.0657,2.0642,2.0611,2.0593,2.0591,2.0577,2.0587,2.0586,2.0582,2.0539,2.0537,2.0598,2.0598,2.0598,2.0598,2.0598,2.0598,2.086,2.0859,2.084,2.0829,2.081,2.0799,2.0789,2.0774,2.0757,2.0741,2.0728,2.0708,2.0683,2.0662,2.0646,2.0638,2.0632,2.0645,2.0632,2.0592,2.0585,2.0578,2.0577,2.0644,2.0644,2.0675,2.0675,2.0676]}]]